Weather in Kameshkovo

Russia / Vladimir Oblast     56°20′56″N   40°59′44″E
temp.,
°C
wind,
m/s
gust,
m/s
humid.,
%
clouds,
%
prec.,
mm/h
press.,
hPa
HPBL,
m
28 july, wed
wed2800:00+15se118451 0.3 101811
03:00+14sse01864 0.3 101811
06:00+16ese238462 0.0 101779
09:00+20se236726 0.0 1017308
12:00+26sse224199 0.0 10151297
15:00+28s2433100 0.0 10132964
18:00+19ene3476100 0.7 101357
21:00+16w3694100 1.4 1013163
29 july, thu
thu2900:00+16ssw2493100 0.0 1011109
03:00+16sse2798100 4.4 1010267
06:00+16sse51097100 10.4 1007441
09:00+16sse2698100 17.8 1005393
12:00+18wnw4592100 0.1 1005538
15:00+20wnw4782100 0.3 1006745
18:00+21wsw137498 0.1 1005125
21:00+18ssw358810 0.1 100486
30 july, fri
fri3000:00+17wsw368851 0.0 1005104
03:00+16wsw3493100 0.0 100580
06:00+18wsw2585100 0.0 1005165
09:00+23w3665100 0.0 1005534
12:00+19sw4892100 1.3 1006336
15:00+19ssw3595100 4.9 1005343
18:00+20sw348751 0.5 1005539
21:00+18ssw23965 0.5 100462
31 july, sat
sat3100:00+17sw359749 0.6 1004125
03:00+17wsw249289 0.8 100498
06:00+16wsw378893 0.0 1005157
09:00+22wsw476344 0.0 1005562
12:00+26wsw7114236 0.0 10052629
15:00+25wsw6104432 0.0 10041186
18:00+24w510445 0.0 1005723
21:00+18w3563100 0.0 100768
1 august, sun
sun100:00+16wsw357527 0.0 100885
03:00+15sw3480100 0.0 100974
06:00+17ssw2678100 0.0 1009159
09:00+23ssw475499 0.0 1008530
12:00+27ssw61042100 0.0 10061225
15:00+31ssw71435100 0.0 10043417
18:00+23w4106896 0.1 1005440
21:00+19w228824 0.1 100731